Flight Information

DEPARTURE
SACRAMENTO, CA
Elevation:
23
Runways:
2/20 - 5503x150 - ASPH-G
H1 - 60x60 - ASPH-G
12/30 - 3837x100 - ASPH-G
Active PE Departure:
2 - 30
Current PE ATIS:
B
Altimeter:
29.90
Remarks:
ATIS:
125.5 916-428-7066
Ground:
125
Tower:
EXECUTIVE TOWER 119.5
DESTINATION
,
Elevation:
TPA:
1000 (est.)


6847.4 NM69° True-16° Var53° HDG

Flight Plan:
(click to file on line)

1. Type
2. Aircraft Identification
3. Aircraft Type / Special Equipment
4. True Airspeed
kts
5. Departure Airport
(ICAO code)
6. Arriving Airport
(ICAO code)
7. Cruising Altitude
ft
8. Alternate Airport
(ICAO code)
9. Route of Flight
10. Remarks


00:00:00 Departure ATIS: Destination ATIS:

Clearance Limit:
Route:
Altitude: Expect in minutes
Frequency:
Transponder: (7500 Hijack / 7600 Lost Comms / 7700 Emergency)


KSAC 190253Z 34019G28KT 10SM CLR 18/M05 A2991 RMK AO2 PK WND 35028/0252 SLP128 T01831050 53005
Time: 2021-01-19T02:53:00Z
1611025023
Winds: 340 @ 19 kts
Gusting:28 kts
Visibility: 10.0 sm
Clouds (AGL): CLR
Temperature: 18.3 C
Dew Point: -5.0 C
Pressure: 29.911417 in Hgbr


Notes:

Data extracted from FAA Digital Chart Supplement. Effective: 0901Z Thursday, Dec 31, 2020 to 0901Z Thursday, Jan 28, 2021
Current ATIS data is provided courtisy of PilotEdge.